Weather observations for the past three days for
Clayton Lake
Imperial (Metric)
Date Time (edt) Wind (mph) Vis. (mi.) Weather Sky Cond. Temperature (ºF) Relative Humidity Wind Chill (°F) Heat Index (°F) Pressure Precipitation (in)
Air Dwpt 6 hour altimeter (in) sea level (mb) 1 hr 3 hr 6 hr
Max. Min.
18 16:16 SW 9 G 20 0.00 NULL NULL 76.8 48.2 37% 78 29.77 1007.0
18 15:16 SW 8 G 24 0.00 NULL NULL 75.7 49.6 40% 78 29.76 1006.6
18 13:16 S 9 G 15 0.00 NULL NULL 77.4 56.3 48% 79 29.75 1006.2
18 12:16 Vrbl 6 G 25 0.00 NULL NULL 77.4 56.3 48% 79 29.75 1006.3
18 11:16 Vrbl 5 G 18 0.00 NULL NULL 77.5 61.5 58% 79 29.75 1006.6
18 10:16 S 12 G 16 0.00 NULL NULL 76.3 63.1 64% 78 29.75 1006.6
18 09:16 Vrbl 2 0.00 NULL NULL 74.1 61.9 66% 29.76 1006.9
18 08:16 Vrbl 6 0.00 NULL NULL 71.2 63.7 71.2 66.2 77% 29.77 1007.1
18 07:16 Vrbl 2 0.00 NULL NULL 67.8 63.3 86% 29.77 1007.1
18 06:16 Vrbl 2 0.00 NULL NULL 66.6 62.6 87% 29.76 1006.8
18 05:16 Vrbl 2 0.00 NULL NULL 66.6 62.8 88% 29.76 1006.6
18 04:16 Vrbl 3 0.00 NULL NULL 67.1 62.8 86% 29.75 1006.2
18 03:16 Vrbl 2 0.00 NULL NULL 66.7 62.2 86% 29.74 1005.9
18 02:16 Calm 0.00 NULL NULL 67.5 61.9 74.7 67.6 82% 29.75 1006.0
18 01:16 Calm 0.00 NULL NULL 68.4 62.2 81% 29.74 1005.9
18 00:16 Calm 0.00 NULL NULL 68.4 63.3 84% 29.75 1006.1
17 23:16 Calm 0.00 NULL NULL 70 64.6 83% 29.75 1006.1
17 22:16 Vrbl 5 0.00 NULL NULL 72.1 65.3 79% 29.77 1006.7
17 21:16 S 8 0.00 NULL NULL 73.8 65.8 76% 29.77 1006.6
17 20:16 S 9 0.00 NULL NULL 74.5 65.5 82.9 74.1 74% 29.76 1006.3
17 19:17 Calm 0.00 NULL NULL 74.8 67.1 77% 29.74 1005.7
17 18:16 Vrbl 2 0.00 NULL NULL 77.7 66.4 68% 80 29.72 1005.1
17 17:16 Vrbl 5 0.00 NULL NULL 78.4 65.8 65% 80 29.72 1005.0
17 16:16 W 7 G 15 0.00 NULL NULL 82 63.3 53% 83 29.72 1005.0
17 15:16 S 12 G 20 0.00 NULL NULL 81.3 63.1 54% 83 29.72 1005.2
17 14:16 S 14 G 22 0.00 NULL NULL 80.2 64.8 80.8 72.1 59% 82 29.73 1005.6
17 13:16 SW 7 G 14 0.00 NULL NULL 79 64.6 61% 81 29.74 1006.1
17 12:16 Vrbl 5 G 18 0.00 NULL NULL 77.7 64.4 64% 80 29.75 1006.3
17 11:16 Vrbl 7 G 16 0.00 NULL NULL 76.6 65.1 68% 78 29.74 1006.1
17 10:16 SW 7 G 20 0.00 NULL NULL 77 65.5 68% 79 29.73 1005.9
17 09:16 Vrbl 5 0.00 NULL NULL 75.4 65.8 72% 77 29.74 1006.0
17 08:16 S 9 G 17 0.00 NULL NULL 72.1 66 73.2 66.6 81% 29.74 1006.2
17 07:16 S 12 G 17 0.00 NULL NULL 71.4 65.5 82% 29.73 1005.8
17 06:16 Calm 0.00 NULL NULL 69.1 65.8 89% 29.71 1005.2
17 05:16 Vrbl 2 0.00 NULL NULL 67.8 66 94% 29.7 1004.7
17 04:16 Calm 0.00 NULL NULL 67.6 66.6 96% 29.68 1004.0
17 03:16 Calm 0.00 NULL NULL 68 66.2 94% 29.68 1003.9
17 02:16 Calm 0.00 NULL NULL 69.3 66.2 74.3 68.5 90% 29.68 1003.8
17 01:16 Vrbl 5 0.00 NULL NULL 69.8 66.7 90% 29.69 1004.1
17 00:16 Calm 0.00 NULL NULL 68.5 66.7 94% 29.68 1003.8
16 23:16 Calm 0.00 NULL NULL 69.3 66.9 92% 29.7 1004.2
16 22:16 Calm 0.00 NULL NULL 71.1 66.6 86% 29.72 1004.8
16 21:16 S 8 0.00 NULL NULL 73.8 66.4 78% 29.71 1004.5
16 20:16 Vrbl 6 0.00 NULL NULL 73.8 67.1 82.2 73.8 80% 29.69 1004.1
16 19:16 Calm 0.00 NULL NULL 75.2 67.1 76% 76 29.68 1003.6
16 18:16 Calm 0.00 NULL NULL 76.8 67.1 72% 79 29.68 1003.6
16 17:16 Vrbl 5 0.00 NULL NULL 79.2 63.1 58% 81 29.66 1003.1
16 16:16 Vrbl 5 G 14 0.00 NULL NULL 79.5 64.6 60% 81 29.67 1003.5
16 15:16 Vrbl 3 0.00 NULL NULL 80.1 66.9 64% 82 29.67 1003.6
16 14:16 SW 8 G 17 0.00 NULL NULL 81.1 64.6 81.7 68.7 57% 83 29.67 1003.7
16 13:16 Vrbl 3 0.00 NULL NULL 80.4 66.2 62% 83 29.68 1004.2
16 12:16 Calm 0.00 NULL NULL 77.7 65.3 66% 80 29.7 1004.8
16 11:16 Vrbl 3 0.00 NULL NULL 74.5 66 75% 29.7 1004.7
16 10:16 Vrbl 5 0.00 NULL NULL 73.2 66.9 81% 29.71 1005.3
16 09:16 Calm 0.00 NULL NULL 72.3 68 86% 29.71 1005.4
16 05:16 Calm 0.00 NULL NULL 67.3 65.1 93% 29.71 1005.2
16 04:16 Calm 0.00 NULL NULL 66 63.7 92% 29.71 1005.0
16 03:16 Calm 0.00 NULL NULL 66.4 64 92% 29.71 1005.0
16 02:16 Calm 0.00 NULL NULL 66.7 64.2 74.3 66.6 92% 29.72 1005.2
16 01:16 Calm 0.00 NULL NULL 67.6 64.6 90% 29.73 1005.4
16 00:16 Calm 0.00 NULL NULL 68.9 65.1 88% 29.75 1005.9
15 23:16 Calm 0.00 NULL NULL 68.9 64.6 86% 29.75 1005.9
15 22:16 Calm 0.00 NULL NULL 70 65.3 85% 29.76 1006.3
15 21:16 Calm 0.00 NULL NULL 72 66.2 82% 29.76 1006.3
15 20:16 S 7 0.00 NULL NULL 74.3 66.9 82.8 74.1 78% 29.74 1005.6
15 19:16 Vrbl 3 0.00 NULL NULL 77.5 66.4 69% 79 29.75 1006.0
15 18:16 Vrbl 3 0.00 NULL NULL 81.5 64 56% 83 29.75 1006.1
Date Time (edt) Wind (mph) Vis. (mi.) Weather Sky Cond. Air Dwpt Max. Min. Relative Humidity Wind Chill (°F) Heat Index (°F) altimeter (in) sea level (mb) 1 hr 3 hr 6 hr
6 hour
Temperature (ºF) Pressure Precipitation (in)